Погода в Паньцзине

Китай     43°59′17″N   81°30′53″E
темп.,
°C
ветер,
м/с
пор.,
м/с
влажн.,
%
обл.,
%
осадки,
мм/ч
давл.,
гПа
погр.,
м
14 августа, вс
вс1423:00+22ссв33270 0.0 101120
02:00+20всв32320 0.0 101219
05:00+19всв22368 0.0 101215
08:00+19св22390 0.0 101319
11:00+27ююв33210 0.0 1011662
14:00+32ююв22160 0.0 10082217
17:00+35юз22110 0.0 10052670
20:00+35з2290 0.0 10032245
15 августа, пн
пн1523:00+23ссв68330 0.0 100688
02:00+22ссв44300 0.0 100539
05:00+22св33240 0.0 100522
08:00+21ссв32250 0.0 100520
11:00+30ююз21160 0.0 1004557
14:00+35юз32130 0.0 10011895
17:00+38з55113 0.0 9992627
20:00+36з77120 0.0 9982456
16 августа, вт
вт1623:00+25ссв44232 0.0 100230
02:00+24в222673 0.0 100313
05:00+23св2227100 0.0 100311
08:00+20св21371 0.0 100512
11:00+27з48223 0.0 10061098
14:00+32зюз691492 0.0 10042158
17:00+35з912100 0.0 10013134
20:00+32зюз111112100 0.0 10012422
17 августа, ср
ср1723:00+24зсз5101748 0.0 1006205
02:00+20ссв43200 0.0 100729
05:00+18св33200 0.0 100816
08:00+17ссв43220 0.0 101032
11:00+24з45150 0.0 10101110
14:00+28з58120 0.0 10091916
17:00+31зюз81090 0.0 10062538
20:00+29з8990 0.0 10062318
18 августа, чт
чт1823:00+19ссв44180 0.0 101033
02:00+16всв22210 0.0 101115
05:00+15св33200 0.0 101116
08:00+15ссв33190 0.0 101120
11:00+24зсз33130 0.0 1010999
14:00+29з43110 0.0 10071655
17:00+31з66110 0.0 10031877
20:00+30з67110 0.0 10031866